When you browse on this site, cookies collect data to enhance your experience and personalize the content and advertising you see.
Visit our Privacy Policy to learn more. By continuing to use the site, you agree to this use of cookies and data.
  • In Belgien
  • Länderverzeichnis
  • Für 7 Tage
  • Wassertemperatur
  • Satellitenkarten
  • Wetterkarte
  • Widgets
  • user-avatar
    Anmelden

    Stündliche Wetter Lutyancevo

    Heute, 24 Juni, Montag

    Zeit Temperatur Niederschläge Wind Luftdruck Luftfeuchtigkeit
    00:00 +12°C° 0 mm 1 m/S 750 mmHg 68%
    01:00 +12°C° 0 mm 1 m/S 751 mmHg 65%
    02:00 +11°C° 0 mm 1 m/S 751 mmHg 65%
    03:00 +12°C° 0 mm 1 m/S 751 mmHg 65%
    04:00 +13°C° 0 mm 1 m/S 751 mmHg 64%
    05:00 +13°C° 0 mm 1 m/S 751 mmHg 64%
    06:00 +15°C° 0 mm 1 m/S 751 mmHg 58%
    07:00 +18°C° 0 mm 1 m/S 751 mmHg 51%
    08:00 +19°C° 0 mm 2 m/S 752 mmHg 45%
    09:00 +18°C° 0 mm 2 m/S 751 mmHg 50%
    10:00 +18°C° 0 mm 3 m/S 751 mmHg 55%
    11:00 +17°C° 0 mm 3 m/S 751 mmHg 60%
    12:00 +18°C° 0.1 mm 3 m/S 751 mmHg 56%
    13:00 +19°C° 0.1 mm 4 m/S 751 mmHg 52%
    14:00 +20°C° 0.1 mm 4 m/S 752 mmHg 48%
    15:00 +20°C° 0 mm 4 m/S 752 mmHg 48%
    16:00 +20°C° 0 mm 4 m/S 751 mmHg 48%
    17:00 +20°C° 0 mm 4 m/S 751 mmHg 48%
    18:00 +18°C° 0 mm 3 m/S 752 mmHg 56%
    19:00 +17°C° 0 mm 2 m/S 752 mmHg 63%
    20:00 +15°C° 0 mm 2 m/S 752 mmHg 71%
    21:00 +14°C° 0 mm 2 m/S 752 mmHg 72%
    22:00 +13°C° 0 mm 2 m/S 753 mmHg 73%
    23:00 +12°C° 0 mm 2 m/S 753 mmHg 75%

    Morgen, 25 Juni, Dienstag

    Zeit Temperatur Niederschläge Wind Luftdruck Luftfeuchtigkeit
    00:00 +10°C° 0 mm 2 m/S 753 mmHg 75%
    01:00 +9°C° 0 mm 2 m/S 754 mmHg 75%
    02:00 +9°C° 0 mm 2 m/S 754 mmHg 76%
    03:00 +10°C° 0 mm 2 m/S 754 mmHg 74%
    04:00 +10°C° 0 mm 2 m/S 754 mmHg 73%
    05:00 +12°C° 0 mm 2 m/S 754 mmHg 72%
    06:00 +14°C° 0 mm 2 m/S 754 mmHg 66%
    07:00 +15°C° 0 mm 2 m/S 755 mmHg 60%
    08:00 +17°C° 0 mm 2 m/S 755 mmHg 55%
    09:00 +18°C° 0 mm 2 m/S 755 mmHg 50%
    10:00 +19°C° 0 mm 3 m/S 755 mmHg 46%
    11:00 +20°C° 0 mm 3 m/S 755 mmHg 41%
    12:00 +20°C° 0 mm 3 m/S 755 mmHg 42%
    13:00 +20°C° 0 mm 3 m/S 754 mmHg 44%
    14:00 +20°C° 0 mm 2 m/S 754 mmHg 45%
    15:00 +20°C° 0 mm 2 m/S 754 mmHg 48%
    16:00 +19°C° 0 mm 2 m/S 754 mmHg 51%
    17:00 +20°C° 0 mm 1 m/S 754 mmHg 55%
    18:00 +19°C° 0 mm 1 m/S 754 mmHg 60%
    19:00 +18°C° 0 mm 1 m/S 753 mmHg 66%
    20:00 +15°C° 0 mm 1 m/S 753 mmHg 71%
    21:00 +14°C° 0 mm 1 m/S 753 mmHg 73%
    22:00 +13°C° 0 mm 1 m/S 753 mmHg 75%
    23:00 +13°C° 0 mm 1 m/S 753 mmHg 77%

    übermorgen, 26 Juni, Mittwoch

    Zeit Temperatur Niederschläge Wind Luftdruck Luftfeuchtigkeit
    00:00 +13°C° 0 mm 1 m/S 753 mmHg 75%
    01:00 +13°C° 0 mm 1 m/S 752 mmHg 74%
    02:00 +13°C° 0 mm 1 m/S 752 mmHg 72%
    03:00 +13°C° 0 mm 1 m/S 752 mmHg 72%
    04:00 +14°C° 0 mm 1 m/S 752 mmHg 73%
    05:00 +14°C° 0 mm 2 m/S 751 mmHg 73%
    06:00 +16°C° 0 mm 2 m/S 751 mmHg 65%
    07:00 +17°C° 0 mm 3 m/S 751 mmHg 58%
    08:00 +18°C° 0 mm 3 m/S 751 mmHg 50%
    09:00 +19°C° 0 mm 3 m/S 751 mmHg 51%
    10:00 +19°C° 0 mm 3 m/S 750 mmHg 51%
    11:00 +20°C° 0 mm 3 m/S 750 mmHg 51%
    12:00 +19°C° 0.2 mm 3 m/S 750 mmHg 55%
    13:00 +19°C° 0.2 mm 3 m/S 749 mmHg 59%
    14:00 +19°C° 0.2 mm 3 m/S 749 mmHg 63%
    15:00 +19°C° 0.6 mm 3 m/S 748 mmHg 68%
    16:00 +18°C° 0.6 mm 2 m/S 748 mmHg 72%
    17:00 +18°C° 0.6 mm 2 m/S 747 mmHg 77%
    18:00 +18°C° 0.1 mm 1 m/S 747 mmHg 80%
    19:00 +15°C° 0.1 mm 1 m/S 747 mmHg 83%
    20:00 +13°C° 0.1 mm 0 m/S 746 mmHg 86%
    21:00 +12°C° 0 mm 0 m/S 746 mmHg 88%
    22:00 +11°C° 0 mm 0 m/S 746 mmHg 89%
    23:00 +10°C° 0 mm 0 m/S 746 mmHg 90%

    27 Juni, Donnerstag

    Zeit Temperatur Niederschläge Wind Luftdruck Luftfeuchtigkeit
    00:00 +11°C° 0 mm 1 m/S 745 mmHg 92%
    01:00 +11°C° 0 mm 1 m/S 745 mmHg 93%
    02:00 +10°C° 0 mm 1 m/S 744 mmHg 95%
    03:00 +10°C° 0 mm 2 m/S 744 mmHg 93%
    04:00 +10°C° 0 mm 2 m/S 743 mmHg 92%
    05:00 +12°C° 0 mm 2 m/S 743 mmHg 90%
    06:00 +13°C° 0 mm 3 m/S 742 mmHg 83%
    07:00 +14°C° 0 mm 3 m/S 742 mmHg 76%
    08:00 +17°C° 0 mm 4 m/S 741 mmHg 69%
    09:00 +17°C° 0 mm 4 m/S 740 mmHg 67%
    10:00 +18°C° 0 mm 3 m/S 740 mmHg 65%
    11:00 +18°C° 0 mm 3 m/S 739 mmHg 63%
    12:00 +18°C° 0.1 mm 3 m/S 738 mmHg 68%
    13:00 +17°C° 0.1 mm 3 m/S 738 mmHg 72%
    14:00 +17°C° 0.1 mm 3 m/S 737 mmHg 77%
    15:00 +16°C° 0.1 mm 3 m/S 737 mmHg 79%
    16:00 +16°C° 0.1 mm 2 m/S 736 mmHg 81%
    17:00 +16°C° 0.1 mm 2 m/S 736 mmHg 83%
    18:00 +15°C° 0 mm 2 m/S 735 mmHg 85%
    19:00 +15°C° 0 mm 2 m/S 735 mmHg 86%
    20:00 +14°C° 0 mm 1 m/S 735 mmHg 88%
    21:00 +14°C° 0 mm 2 m/S 735 mmHg 90%
    22:00 +14°C° 0 mm 2 m/S 734 mmHg 92%
    23:00 +13°C° 0 mm 2 m/S 734 mmHg 94%

    28 Juni, Freitag

    Zeit Temperatur Niederschläge Wind Luftdruck Luftfeuchtigkeit
    00:00 +13°C° 0 mm 2 m/S 734 mmHg 94%
    01:00 +11°C° 0 mm 3 m/S 733 mmHg 93%
    02:00 +11°C° 0 mm 3 m/S 733 mmHg 93%
    03:00 +11°C° 0 mm 3 m/S 733 mmHg 92%
    04:00 +11°C° 0 mm 3 m/S 732 mmHg 90%
    05:00 +11°C° 0 mm 4 m/S 732 mmHg 89%
    06:00 +12°C° 0 mm 4 m/S 732 mmHg 83%
    07:00 +13°C° 0 mm 4 m/S 732 mmHg 76%
    08:00 +14°C° 0 mm 5 m/S 731 mmHg 70%
    09:00 +14°C° 0.3 mm 5 m/S 731 mmHg 75%
    10:00 +13°C° 0.3 mm 4 m/S 731 mmHg 80%
    11:00 +13°C° 0.3 mm 4 m/S 731 mmHg 84%
    12:00 +12°C° 1.7 mm 4 m/S 731 mmHg 88%
    13:00 +12°C° 1.7 mm 4 m/S 730 mmHg 92%
    14:00 +11°C° 1.7 mm 4 m/S 730 mmHg 96%
    15:00 +11°C° 0.5 mm 4 m/S 730 mmHg 96%
    16:00 +11°C° 0.5 mm 4 m/S 730 mmHg 96%
    17:00 +11°C° 0.5 mm 4 m/S 730 mmHg 96%
    18:00 +11°C° 0.3 mm 4 m/S 730 mmHg 97%
    19:00 +10°C° 0.3 mm 4 m/S 730 mmHg 97%
    20:00 +10°C° 0.3 mm 4 m/S 730 mmHg 97%
    21:00 +10°C° 0.3 mm 4 m/S 729 mmHg 97%
    22:00 +10°C° 0.3 mm 4 m/S 729 mmHg 97%
    23:00 +10°C° 0.3 mm 4 m/S 728 mmHg 98%

    29 Juni, Samstag

    Zeit Temperatur Niederschläge Wind Luftdruck Luftfeuchtigkeit
    00:00 +10°C° 1.8 mm 4 m/S 728 mmHg 98%
    01:00 +10°C° 1.8 mm 4 m/S 728 mmHg 98%
    02:00 +10°C° 1.8 mm 4 m/S 727 mmHg 98%
    03:00 +11°C° 2.3 mm 4 m/S 727 mmHg 98%
    04:00 +11°C° 2.3 mm 3 m/S 727 mmHg 98%
    05:00 +11°C° 2.3 mm 3 m/S 727 mmHg 98%
    06:00 +12°C° 0.2 mm 3 m/S 727 mmHg 98%
    07:00 +12°C° 0.2 mm 3 m/S 727 mmHg 97%
    08:00 +13°C° 0.2 mm 3 m/S 727 mmHg 97%
    09:00 +13°C° 0.6 mm 3 m/S 728 mmHg 97%
    10:00 +13°C° 0.6 mm 4 m/S 728 mmHg 97%
    11:00 +13°C° 0.6 mm 4 m/S 728 mmHg 96%
    12:00 +14°C° 0.6 mm 4 m/S 729 mmHg 96%
    13:00 +14°C° 0.6 mm 4 m/S 729 mmHg 95%
    14:00 +14°C° 0.6 mm 5 m/S 729 mmHg 94%
    15:00 +14°C° 0.3 mm 5 m/S 729 mmHg 93%
    16:00 +14°C° 0.3 mm 5 m/S 730 mmHg 93%
    17:00 +14°C° 0.3 mm 5 m/S 730 mmHg 92%
    18:00 +14°C° 0.2 mm 5 m/S 731 mmHg 94%
    19:00 +13°C° 0.2 mm 5 m/S 731 mmHg 95%
    20:00 +13°C° 0.2 mm 5 m/S 731 mmHg 96%
    21:00 +13°C° 0.3 mm 5 m/S 732 mmHg 96%
    22:00 +13°C° 0.3 mm 5 m/S 732 mmHg 97%
    23:00 +13°C° 0.3 mm 4 m/S 732 mmHg 97%
    Mehr zeigen